Race Results for
White Tank Mountain Park Wheels of Fire
Waddell, AZ
(Event Information)
View By:
This is a non-competitive event
Cross Country on 10/20/2001

Note: Ranking points are NOT upgrade points. An explanation of ranking points can be found here.


Men - Junior - JR - 1-12

 Place NameCity, StateTime USAC #BibTeam
1DAVID HUNT   31:36  1018 
1UNKNOWN RIDER    17:00  9000 
2DAVID ERB   17:01  980 
2Doug Hunt   Mesa, AZ31:42 177882  1019 
3Isaiah Klassen   Phoenix, AZ34:33 175923  1158 
3CORY KIRK   30:44  1030 

Men - Junior - JR - 13-14

 Place NameCity, StateTime USAC #BibTeam
1Ryan Walsh   Hiram, GA39:15 177817  1227 
2ANDREW JORGENSON   43:56  1023 
3NATHANIEL HARRIS   54:22  1006 
4LUKE DALEY   55:03  972 

Men - Junior - JR - 15-16

 Place NameCity, StateTime USAC #BibTeam
1B Francoeur   Mesa, AZ34:51 177766  1182 
2Tim Allen   Golden, CO36:35 161831  933 
3Jonathan Gorman   Scottsdale, AZ36:38 178528  1144 
4Neal Greene   Scottsdale, AZ36:55 165628  999 
5JOEL POMERENE   41:34  1205 
6Mark Tenniswood   Camp Verde, AZ43:33 179874  1113 
7Daniel Short   Phoenix, AZ49:38 161830  1099 
8RYAN KAPAROTT   50:22  1223 
9WINN WORKMAN   1:34:29  1131 
10MICHAEL OBREGON   2:03:21  1072 

Men - Junior - JR - 17-18

 Place NameCity, StateTime USAC #BibTeam
1Cody Worrell   Glendale, AZ35:16 177874  1133 
2Michael Vester   Dewey, AZ37:13 177877  1119 
3JUSTIN WHITESIDES   40:36  1126 

Men - Junior - JR - JuniorX

 Place NameCity, StateTime USAC #BibTeam
1Paul Mumford   Chicago, IL1:48:18 167887  1141 
2Adam Zimmerman   Silver City, NM2:02:59 177289  1220 

Men - EX - Senior - 19-29

 Place NameCity, StateTime USAC #BibTeam
1Christopher Beardsley   San Diego, CA2:07:57 87648  1224 
2Scott Keller   Sedona, AZ2:11:18 125723  1238 
3Brandon Johnson   Queen Creek, AZ2:12:08 108140  1191 
4Blake Tilker   Phoenix, AZ2:21:55 167878  1216 
5Brad VanOrden   Prescott, AZ2:24:43 140292  1217 
6DeJay Birtch   Tucson, AZ2:25:23 175788  1248 
7Clayton Johnson   Tucson, AZ2:25:24 155943  1192 
8Isaac Neff   Tucson, AZ2:40:55 167169  1200 
9Tim Bolton   Tucson, AZ2:42:04 117086  1177 
10JEREMY OLBERDING   Dripping Spgs, TX2:43:39 54873  1073 

Men - EX - Master - 30-39

 Place NameCity, StateTime USAC #BibTeam
1RICH WEIS   2:16:46  1122 
2Kevin Riseborough   Chandler, AZ2:23:20 177853  1084 
3Andy Byrnes   Phoenix, AZ2:29:08 173538  1247 
4Erick Seltmann   Queen Creek, AZ2:36:55 139099  1096 
5Brett Jurica   Scottsdale, AZ2:40:56 167818  1024 
6ED NEILSON   Boise, ID2:41:27 22401  1201 

Men - EX - Master - 40-49

 Place NameCity, StateTime USAC #BibTeam
1Scott Hansen   Reno, NV2:22:21 108538  1002 
2Jeff Armour   Phoenix, AZ2:36:13 1903  1249 
3Craig Swetel   Mesa, AZ2:48:59 166887  1214 

Men - EX - Master - 50-54

 Place NameCity, StateTime USAC #BibTeam
1Mike Hicks   Fountain Hills, AZ2:12:09 16109  1013 
2Michael See   Gilbert, AZ2:24:25 125768  1094 
3PAUL CORNELL   2:25:31  965 

Men - SP - Senior - 19-29

 Place NameCity, StateTime USAC #BibTeam
1Nathan Lowrie   Phoenix, AZ1:41:42 168679  1197 
2JD LOPEZ   1:41:46  1040 
3CHAD SHELTON   1:46:27  1209 
4Scott Francoeur   Mesa, AZ1:47:31 177767  1183 
5Seth VanNorman   Tucson, AZ1:51:43 154146  1115 
6Keith Atkins   Chandler, AZ1:51:51 82758  1170 
7BRIAN CAREY   1:52:31  1174 
8JERRAD COOPER   1:55:50  1143 
9BRIAN JONES   2:01:38  1193 
10MATTHEW DARBOUS   2:02:55  973 
11Sean Lowe   Logan, UT2:03:29 167762  1043 
12ROBERT DOLMAN   2:03:35  1241 
13Donald Davis   Tucson, AZ2:03:36 167838  974 
14Robert Mansolillo   Phoenix, AZ2:06:05 142072  1046 
15Jason Franks   Phoenix, AZ2:08:55 168294  990 
16William Loria   Mesa, AZ2:24:11 177079  1246 

Men - SP - Master - 30-34

 Place NameCity, StateTime USAC #BibTeam
1Michael Hanson   Gilbert, AZ1:44:10 168528  1004 
2Damon Shelton   Phoenix, AZ1:44:47 145377  1210 
3Chris Smith   Scottsdale, AZ1:45:24 166146  1100 
4RIGO NERI   1:48:13  1065 
5Jeffrey Seese   Gilbert, AZ1:48:26 177080  1095 
6Thomas Covington   Denver, CO1:50:57 159133  967 
7RYAN MERKLEY   1:59:01  1243 
8Aaron Ewing   Scottsdale, AZ2:00:10 159398  982 
9Michael Rapps   Goodyear, AZ2:02:30 142186  1081 
10Greg Rogers   Gilbert, AZ2:12:10 165662  1087 
11Mike Wetzler   Mesa, AZ2:13:30 90558  1218 
12Brett Gruendler   Tempe, AZ2:15:59 167763  1186 
13Patrick Howland   Phoenix, AZ2:27:11 155155  1017 

Men - SP - Master - 35-39

 Place NameCity, StateTime USAC #BibTeam
1Steven Venable   Scottsdale, AZ1:51:37 41865  1117 
2Ted Pratt   Globe, AZ1:51:58 168290  1080 
3David Herzog   Goodyear, AZ1:54:01 168781  1151 
4DANIEL WHITEHILL   1:56:56  1219 
5BARRY WEISSMAN   1:57:03  1123 
6Tad Fagerholm   Phoenix, AZ2:04:26 11161  1179 
7Michael Abad   Phoenix, AZ2:05:55 43295  932 
8Scott Mydock   Glendale, AZ2:06:57 106945  1062 
9Mitch Engdahl   Tempe, AZ2:09:24 165658  979 
10ROBERT RAYL   Louisville, KY2:23:03 58066  1240 

Men - SP - Master - 40-49

 Place NameCity, StateTime USAC #BibTeam
1John Neff   Flagstaff, AZ1:50:17 25799  1064 
2Kurt Luedtke   Tucson, AZ1:55:18 21782  1145 
3JOHN FITZER   2:01:31  1180 
4Jan Campbell   Lucus, TX2:02:49 5946  1159 
5Bruce Hanson   Phoenix, AZ2:18:54 126244  1003 

Men - SP - Master - 50-54

 Place NameCity, StateTime USAC #BibTeam
1MIKE HARTMAN   1:27:04  1007 
2Wayne Fernandez   Prescott, AZ1:30:18 150970  984 
3Carl Schott   Mesa, AZ1:34:48 140932  1090 
4David Dorney   Phoenix, AZ1:46:17 154002  978 

Men - BG - Senior - 19-29

 Place NameCity, StateTime USAC #BibTeam
1JOSH EAKINS   1:07:22  1221 
2Jeff Parker   Tucson, AZ1:12:19 184668  1142 
3THOMAS KING   1:12:37  1027 
4SCOTT SHELLEY   1:14:42  1098 
5JAKE KIRKPATRICK   1:15:57  1233 
6ROBB GREEN   1:16:39  1185 
7MATTHEW HOWARD   1:17:51  1016 
8Joel Stevenson   Tempe, AZ1:18:52 181375  1108 
9KEITH MALTBY   Mesa, AZ1:19:47 185771  1045 
10EVERARDO KEEME   1:20:18  1025 
11KYLE REEDY   1:21:46  1206 
12CHRIS BOLTZ   1:22:05  947 
13WADE MESSER   1:22:10  1052 
14CLINT HOSMAN   1:23:02  1014 
15RICHARD KLEISS   1:23:50  1034 
16Court Fetter   Mesa, AZ1:24:01 177101  985 
17Jessy Moudry   Phoenix, AZ1:26:26 169386  1056 
18KRIS HENDRICKS   1:26:38  1009 
19PATRICK LINGLEY   1:26:43  1225 
20James Schultz   Phoenix, AZ1:27:16 177166  1091 
21JAKE RITTER   1:27:29  1207 
22MIKE OSVOLD   1:30:04  1074 
23WIDD WORKMAN   1:30:05  1132 
24SCOTT WALL   1:30:45  1120 
25KEITH PERRY   1:30:51  1204 
26DAVID EDWARDS   1:30:52  1229 
27PAUL NIXON   1:33:50  1164 
28ERIC MATTESON   1:41:21  1048 
29SAMMY BUCHANAN   1:57:05  957 
30JORGE HERNANDEZ   1:58:51  1010 
31JAVIER TAPIA   2:24:20  1147 
32TOREL NICHOLS   2:36:50  1069 

Men - BG - Master - 30-34

 Place NameCity, StateTime USAC #BibTeam
1Thomas Lawlor   Kyle, TX1:10:08 186000  1038 
2Scott Williams   Chandler, AZ1:14:53 167443  1129 
3Michael Noe   Oakland Gardens, NY1:14:55 176851  1070 
4Kurt Mindy   Anthem, AZ1:16:45 166882  1053 
5SEAN STEPHENSON   1:17:58  1107 
6JOHN BETHEA   1:18:04  941 
7FRED HANNERT   1:18:45  1187 
8STEVE KOPP   1:19:47  1196 
9MICHAEL FITZPATRICK   1:20:13  987 
10KEVIN CROZIER   1:20:19  969 
11Antonio Cortes   Phoenix, AZ1:21:51 181893  966 
12STEVEN ARADIO   1:21:57  1169 
13MICHAEL WHITESIDES   1:25:11  1127 
14JOSE AVILA   1:25:14  937 
15STEVEN SULLIVAN   1:25:46  1112 
16Steve Houk   Phoenix, AZ1:28:46 166888  1015 
17Robert Wilcox   Phoenix, AZ1:29:11 165634  1166 
18James VanVorst   Phoenix, AZ1:29:15 142329  1116 
19BARRY JETTON   1:29:45  1021 
20JEFF BROWN   London, OH1:29:53 89259  955 
21MATTHEW KRITZSTEIN   1:30:25  1036 
22JAMES STENHOLM   1:30:27  1235 
23LANCE FREED   1:31:19  1230 
24DAVID SKOVIAK   1:33:57  1232 
25PAUL WHEELER   1:35:24  1125 
26DAVE ROLAPE   1:42:00  1088 
27PATRICK NEWTON   2:38:05  1068 

Men - BG - Master - 35-39

 Place NameCity, StateTime USAC #BibTeam
1John Fritz   Chandler, AZ1:14:42 49933  1184 
2DAVID GRIFFIS   1:15:13  1000 
3Dennis Keller   Denver, CO1:16:11 177885  1194 
4Donald Miller   Phoenix, AZ1:17:29 157857  1199 
5GREG ZYCH   1:18:54  1135 
6DOUG STREETER   1:20:05  1111 
7ERIK GAUHAROU   1:21:09  995 
8Noel Garcia   Phoenix, AZ1:24:47 177810  994 
9DENNIS LOW   1:28:20  1042 
10MARTIN VITO   1:30:50  1236 
11Doug Bertrand   Mesa, AZ1:31:39 174273  940 
12William Phillips   Tucson, AZ1:32:33 125607  1078 
13MIKE CARGILE   1:38:55  960 
14LARRY DONG   1:41:36  1176 
15MARK CLEVELAND   Pittsburgh, PA2:19:19 75994  963 
16BRADFORD HARRIS   2:24:00  1005 

Men - BG - Master - 40-49

 Place NameCity, StateTime USAC #BibTeam
1Jonathan Klassen   Phoenix, AZ1:14:16 175922  1157 
2PHIL MUMME   1:17:17  1059 
3Bob Malheiro   Driggs, ID1:21:49 174804  1154 
4KARL STAUFFER   1:23:21  1234 
5Kelly Reedy   Mesa, AZ1:23:30 178160  1083 
6BRIAN GOTCHER   1:25:00  998 
7MICHAEL MCCOY   1:28:05  1049 
8EDWARD SMITH   1:31:43  1101 
9Steve Somerville   Chandler, AZ1:36:58 125763  1102 
10DAVE FLEMING   1:39:31  988 
11DOUG CULPEPPER   1:40:15  970 
12TONY ZINZUN   1:45:16  1134 
13THOMAS CULPEPPER   1:45:17  971 

Men - BG - Master - 50-54

 Place NameCity, StateTime USAC #BibTeam
1Rick Scofield   Sonoita, AZ1:24:36 177897  1092 
2RON DERADOURIAN   1:50:27  977 
3Larry Moats   Traverse City, MI1:54:26 176712  1140 
4JIM COX   1:55:30  968 

Men - BG - Master - 55-99

 Place NameCity, StateTime USAC #BibTeam
1MIKE STYES   1:29:31  1213 
2Charles Dell   Chandler, AZ1:30:21 106952  976 
3William Garan   Tempe, AZ1:33:20 176711  992 
4Charles Boyer   Tucson, AZ1:34:12 4497  951 

Women - Junior - JR - 1-12

 Place NameCity, StateTime USAC #BibTeam
1AUBREY GARCIA   40:54  993 

Women - Junior - JR - 13-14

 Place NameCity, StateTime USAC #BibTeam
1Amy Stabler   Phoenix, AZ21:45 177762  1105 
2HEATHER MUMME   31:49  1058 

Women - Junior - JR - 17-18

 Place NameCity, StateTime USAC #BibTeam
1MONIQUE HEIN   53:53  1190 

Women - Junior - JR - JuniorX

 Place NameCity, StateTime USAC #BibTeam
1Rebekah Muster   Phoenix, AZ1:44:58 168772  1061 

Women - EX - Senior - 19-29

 Place NameCity, StateTime USAC #BibTeam
1JENNIFER SICA   Flagstaff, AZ2:30:05 127889  1148 

Women - EX - Master - 30-39

 Place NameCity, StateTime USAC #BibTeam
1Lila McFarland   Phoenix, AZ1:57:40 156249  1050 
2Sandi Scrimgeour   Prescott, AZ1:59:55 32020  1093 
3Stephany Newmeyer   Avondale, AZ2:05:32 154051  1237 
4Sheri Wallace   Tempe, AZ2:24:28 156153  1121 

Women - EX - Master - 40-49

 Place NameCity, StateTime USAC #BibTeam
1LOIS KINNEY NEFF   Flagstaff, AZ2:22:15 168784  1029 

Women - SP - Senior - 19-29

 Place NameCity, StateTime USAC #BibTeam
1Courtney Friesner   Scottsdale, AZ1:24:14 168670  991 
2SHANNON KITCHENS   1:25:20  1033 
3JOANNA BIERI   1:28:17  1239 
4Kathy Boltz   Phoenix, AZ1:33:34 179842  948 

Women - SP - Master - 30-39

 Place NameCity, StateTime USAC #BibTeam
1Wendy Aber   Glendale, AZ1:29:22 166466  1167 

Women - SP - Master - 40-49

 Place NameCity, StateTime USAC #BibTeam
1Beverly Rogers   Phoenix, AZ1:24:49 177806  1086 
2Jan Blackman   Flagstaff, AZ1:44:35 3845  944 

Women - BG - Senior - 19-29

 Place NameCity, StateTime USAC #BibTeam
1Heather Fetter   Mesa, AZ42:49 178519  986 
2LIZ MELVIN   46:18  1161 
3CRISTINA LUIS   53:56  1044 

Women - BG - Master - 30-34

 Place NameCity, StateTime USAC #BibTeam
1ANA TWEEDY   57:42  1114 
2LORING SPENCER   58:19  1103 
3DEBORAH BRANSON   1:03:10  953 
4MARCI HESSLER   1:05:37  1011 

Women - BG - Master - 35-39

 Place NameCity, StateTime USAC #BibTeam
1JOANNE CARGO   44:01  1162 
2Maria Spence   Tucson, AZ54:25 126758  1211 
3DEBBIE MUMME   55:00  1057 

Women - BG - Master - 40-49

 Place NameCity, StateTime USAC #BibTeam
1Lisa Jackson   Phoenix, AZ55:53 68464  1020 
2BARBARA SPERRY   55:58  1104 
3Konni Parker   Camp Verde, AZ1:05:36 168754  1203 

Women - BG - Master - 50-99

 Place NameCity, StateTime USAC #BibTeam
1Hilda Huntress   Cave Creek, AZ1:12:03 166467  1137 

Report missing or incorrect license numbers

Volkswagen
USACDFShimanoBonk BreakerSierra NevadaSpy
UCI USA Cycling is the official governing body for all disciplines of competitive cycling in the United States. The 501c3, membership-based organization aims both to achieve sustained success in international cycling competition and to grow competitive cycling in America while delivering an exceptional customer experience.
View Children's Online Privacy Protection Policy
US Olympic Committee